• Join FlightAware (Why Join?)
  • Login
  • US Flag GB Flag 
14:32 EDT


 

Airport Tracker/Info


-or-


 

Live Flight TrackerFlight Track Log ✈ AWE1693 ✈ 04-May-2013 ✈ KALB - KCLT

Flight Track Log - Related Links

Times and Time Zones

All times are in EDT time to prevent confusion due to time zone crossing. See the AWE1693 flight status page for this flight to view local times or setup timezone preferences in your user account.

Time Position Orientation Groundspeed Altitude Reporting Facility
EDT Latitude Longitude Course Direction KTS MPH feet Rate Location/Type
08:43 42.7694 -73.8089 122° Southeast 155 178 1,400  Level Boston Center
08:44 42.7881 -73.8178 341° North 186 214 2,000 1,680 Climbing Boston Center
08:45 42.8353 -73.8783 317° Northwest 257 296 3,800 2,280 Climbing Boston Center
08:46 42.5046 -74.0675 171° South  Level Estimated
08:46 42.8844 -73.9447 315° West 271 312 6,400  Level Boston Center
08:47 42.4230 -74.1555 170° South  Level Estimated
08:47 42.9042 -74.0331 287° West 273 314 9,100  Level Boston Center
08:48 42.3670 -74.0363 122° Southeast  Level FlightAware Approximate
08:48 42.9083 -74.1581 273° West 299 344 11,800  Level Boston Center
08:49 42.8411 -74.2042 207° Southwest 269 310 12,700 1,500 Climbing Boston Center
08:50 42.7397 -74.1475 158° South 302 348 14,900 2,040 Climbing Boston Center
08:51 42.6531 -74.0944 156° South 372 428 16,800 1,740 Climbing Boston Center
08:52 42.5436 -74.0322 157° South 395 455 18,400 1,560 Climbing Boston Center
08:53 42.4358 -73.9761 159° South 395 455 20,000 1,500 Climbing Boston Center
08:54 42.3261 -73.9144 157° South 411 473 21,400 1,440 Climbing Boston Center
08:55 42.2125 -73.8500 157° South 425 489 22,900 1,380 Climbing Boston Center
08:56 42.0944 -73.7858 158° South 441 507 24,200 1,200 Climbing Boston Center
08:57 41.9764 -73.7192 157° South 454 522 25,400 1,200 Climbing Boston Center
08:58 41.8561 -73.6525 158° South 454 522 26,700 1,200 Climbing Boston Center
08:59 41.7297 -73.6028 164° South 464 534 27,800 1,020 Climbing Boston Center
09:00 41.5922 -73.5975 178° South 481 554 28,800 900 Climbing Boston Center
09:01 41.4733 -73.5897 177° South 481 554 29,700 1,020 Climbing Boston Center
09:02 41.2344 -73.6708 194° South 460 529 31,700 1,200 Climbing New York Center
09:03 41.1497 -73.8050 230° Southwest 460 529 33,100 1,620 Climbing New York Center
09:04 41.0714 -73.9361 232° Southwest 455 524 35,000 960 Climbing New York Center
09:05 40.9925 -74.0700 232° Southwest 455 524 35,100 240 Climbing New York Center
09:06 40.9183 -74.1900 231° Southwest 468 539 35,500 420 Climbing New York Center
09:07 40.8353 -74.3228 230° Southwest 473 544 36,000 240 Climbing New York Center
09:08 40.7542 -74.4583 232° Southwest 473 544 36,000  Level New York Center
09:09 40.6747 -74.5908 232° Southwest 473 544 36,000  Level New York Center
09:10 40.5933 -74.7231 231° Southwest 473 544 36,000 -60 Level New York Center
09:11 40.5100 -74.8464 228° Southwest 473 544 35,900 -60 Descending New York Center
09:12 40.4222 -74.9694 227° Southwest 468 539 35,900  Level New York Center
09:13 40.3344 -75.0947 227° Southwest 468 539 35,900  Level New York Center
09:14 40.2486 -75.2172 227° Southwest 468 539 36,000  Climbing New York Center
09:15 40.1606 -75.3419 227° Southwest 468 539 36,000  Level New York Center
09:16 40.0725 -75.4608 226° Southwest 468 539 36,000  Level New York Center
09:17 39.9753 -75.5953 227° Southwest 473 544 36,000  Level New York Center
09:18 39.8908 -75.7194 228° Southwest 473 544 36,000  Level New York Center
09:20 39.7758 -75.8992 230° Southwest 466 536 36,000  Level Washington Center
09:21 39.6942 -76.0256 230° Southwest 466 536 36,000  Level Washington Center
09:22 39.6164 -76.1544 232° Southwest 459 528 36,000  Level Washington Center
09:23 39.5386 -76.2778 231° Southwest 459 528 36,000 -60 Level Washington Center
09:24 39.4589 -76.3978 229° Southwest 453 521 35,900  Descending Washington Center
09:25 39.3683 -76.5311 229° Southwest 453 521 36,000  Climbing Washington Center
09:26 39.2922 -76.6536 231° Southwest 453 521 36,000  Level Washington Center
09:27 39.2139 -76.7731 230° Southwest 453 521 36,000  Level Washington Center
09:28 39.1356 -76.8947 230° Southwest 453 521 36,000  Level Washington Center
09:29 39.0572 -77.0164 230° Southwest 448 516 36,000  Level Washington Center
09:30 38.9661 -77.1214 222° Southwest 448 516 36,000  Level Washington Center
09:31 38.8711 -77.2261 221° Southwest 448 516 36,000  Level Washington Center
09:32 38.7758 -77.3306 221° Southwest 453 521 36,000  Level Washington Center
09:33 38.6931 -77.4189 220° Southwest 453 521 36,000  Level Washington Center
09:34 38.5978 -77.5228 220° Southwest 448 516 36,000  Level Washington Center
09:35 38.5064 -77.6239 221° Southwest 448 516 36,000  Level Washington Center
09:36 38.4128 -77.7275 221° Southwest 443 510 36,000  Level Washington Center
09:37 38.3214 -77.8281 221° Southwest 443 510 36,000  Level Washington Center
09:38 38.2256 -77.9283 219° Southwest 443 510 36,000  Level Washington Center
09:39 38.1339 -78.0283 221° Southwest 443 510 36,000  Level Washington Center
09:40 38.0422 -78.1256 220° Southwest 438 504 36,000  Level Washington Center
09:41 37.9542 -78.2439 227° Southwest 432 497 36,000  Level Washington Center
09:42 37.8831 -78.3492 229° Southwest 433 498 36,000  Level Washington Center
09:43 37.8011 -78.4644 228° Southwest 433 498 36,000  Level Washington Center
09:44 37.7211 -78.5794 229° Southwest 438 504 36,000  Level Washington Center
09:45 37.6389 -78.6942 228° Southwest 438 504 36,000  Level Washington Center
09:46 37.5500 -78.8217 229° Southwest 443 510 36,000  Level Washington Center
09:47 37.4678 -78.9333 227° Southwest 448 516 36,000 -300 Level Washington Center
09:48 37.3872 -79.0475 228° Southwest 448 516 35,500 -780 Descending Washington Center
09:49 37.3089 -79.1561 228° Southwest 442 509 34,500 -900 Descending Washington Center
09:50 37.2244 -79.2592 224° Southwest 432 497 33,800 -780 Descending Washington Center
09:51 37.1236 -79.3456 214° Southwest 432 497 33,000 -480 Descending Washington Center
09:52 37.0294 -79.4217 213° Southwest 444 511 32,900 -120 Descending Washington Center
09:53 36.9289 -79.5050 214° Southwest 444 511 32,800 -600 Descending Washington Center
09:54 36.8281 -79.5881 213° Southwest 444 511 31,800 -1,020 Descending Washington Center
09:56 36.6400 -79.7389 213° Southwest 446 513 30,000 -1,740 Descending Atlanta Center
09:57 36.5283 -79.8303 213° Southwest 446 513 27,100 -2,700 Descending Atlanta Center
09:58 36.4269 -79.9128 213° Southwest 446 513 24,600 -2,400 Descending Atlanta Center
09:59 36.3294 -79.9900 213° Southwest 441 507 22,300 -1,320 Descending Atlanta Center
10:00 36.2361 -80.0694 214° Southwest 428 493 22,000 -1,020 Descending Atlanta Center
10:01 36.1528 -80.1403 214° Southwest 415 478 20,300 -1,920 Descending Atlanta Center
10:02 36.0633 -80.2167 215° Southwest 404 465 18,200 -2,040 Descending Atlanta Center
10:03 35.9761 -80.2925 215° Southwest 404 465 16,300 -2,160 Descending Atlanta Center
10:03 35.9214 -80.3464 219° Southwest 379 436 14,900 -2,400 Descending Atlanta Center
10:04 35.8828 -80.3764 212° Southwest 390 449 13,900 -1,380 Descending Atlanta Center
10:05 35.8033 -80.4414 214° Southwest 374 430 13,000 -900 Descending Atlanta Center
10:05 35.7564 -80.4844 217° Southwest 292 336 12,400 -1,140 Descending Atlanta Center
10:06 35.7339 -80.4981 206° Southwest 321 369 11,900 -1,620 Descending Atlanta Center
10:06 35.6850 -80.5386 214° Southwest 286 329 10,800 -1,320 Descending Atlanta Center
10:07 35.6750 -80.5492 221° Southwest 301 346 10,600 -780 Descending Atlanta Center
10:07 35.6219 -80.5950 215° Southwest 286 329 10,000 -600 Descending Atlanta Center
10:08 35.6097 -80.6056 215° Southwest 292 336 10,000  Level Atlanta Center
10:08 35.5506 -80.6542 214° Southwest 286 329 10,000  Level Atlanta Center
10:10 35.4853 -80.7103 215° Southwest 285 328 10,000  Level Atlanta Center
10:11 35.4200 -80.7639 214° Southwest 284 327 10,000  Level Atlanta Center
10:12 35.3525 -80.8175 213° Southwest 283 326 10,000 -180 Level Atlanta Center
10:13 35.2656 -80.8386 191° South 270 311 9,700 -840 Descending Atlanta Center
10:14 35.2008 -80.8336 176° South 263 303 8,400 -1,560 Descending Atlanta Center
10:15 35.1297 -80.8261 175° South 257 296 6,800 -1,620 Descending Atlanta Center
10:16 35.0564 -80.8189 175° South 253 291 5,100 -1,380 Descending Atlanta Center
10:17 34.9853 -80.8167 179° South 255 293 4,000 -600 Descending Atlanta Center
10:18 34.9122 -80.8092 175° South 262 302 4,000  Level Atlanta Center
10:19 34.8628 -80.8392 206° Southwest 223 257 4,100  Climbing Atlanta Center
10:20 34.8853 -80.9042 293° West 200 230 4,000 -60 Descending Atlanta Center
10:21 34.9356 -80.9122 353° North 182 209 4,000  Level Atlanta Center
10:22 34.9881 -80.9178 355° North 184 212 4,000 -60 Level Atlanta Center
10:23 35.0403 -80.9236 355° North 186 214 3,900 -120 Descending Atlanta Center